[[[{"header":{"parameterUnit":"kt","parameterCategory":2,"dx":1,"dy":1,"la1":30.253999710083008,"la2":30.299108505249023,"lo1":-89.0895004272461,"lo2":-89.04439544677734,"nx":28,"ny":28,"refTime":"2022-10-09T21:00:00:Z","depth":"0","parameterNumber":2,"parameterNumberName":"U-component_of_CURRENTS"},"data":[0.328,0.3241,0.3269,0.3192,0.3183,0.311,0.3096,0.3134,0.3241,0.3412,0.3599,0.3802,0.4207,0.4713,0.4955,0.4987,0.4571,0.4487,0.4307,0.484,0.4842,0.4843,0.4718,0.4816,0.4815,0.3524,0.3514,0.3507,0.3357,0.3384,0.3376,0.3325,0.3292,0.3305,0.33,0.3263,0.3309,0.3507,0.3647,0.4076,0.4513,0.4895,0.5322,0.5294,0.5055,0.5236,0.4711,0.461,0.5297,0.5195,0.5397,0.5397,0.5398,0.5398,0.5398,0.5398,0.349,0.3484,0.3457,0.3414,0.3391,0.3372,0.3318,0.3334,0.3377,0.3484,0.3662,0.3903,0.4371,0.499,0.5163,0.5433,0.5182,0.5401,0.5259,0.4904,0.4672,0.5278,0.5632,0.5632,0.5632,0.5632,0.5632,0,0.3538,0.3553,0.3487,0.3467,0.3412,0.335,0.3294,0.3322,0.3311,0.3425,0.3595,0.3779,0.4282,0.462,0.5056,0.5279,0.5019,0.536,0.5227,0.4949,0.4482,0.4394,0.4988,0.5297,0.5295,0.5293,0.5292,0.5291,0.3589,0.3567,0.3473,0.3437,0.3363,0.328,0.325,0.3195,0.3216,0.3366,0.3459,0.3771,0.3998,0.4529,0.4807,0.5165,0.4918,0.5305,0.5167,0.4981,0.4883,0.45,0.4369,0.527,0.5273,0.5275,0.5277,0,0.361,0.3543,0.3446,0.3316,0.3281,0.3227,0.3129,0.3135,0.3177,0.3297,0.3362,0.3552,0.3882,0.4123,0.4494,0.4591,0.4763,0.4976,0.4883,0.4952,0.4957,0.4808,0.4677,0.4547,0.5247,0.525,0.5253,0,0.3568,0.3492,0.3368,0.3321,0.3253,0.313,0.3108,0.3089,0.3143,0.3214,0.331,0.3462,0.3698,0.3953,0.4117,0.4454,0.4496,0.4588,0.4676,0.463,0.4628,0.4561,0.4412,0.4621,0.4619,0.4616,0.4614,0,0.3541,0.341,0.3341,0.3286,0.3135,0.3105,0.3032,0.3047,0.3065,0.3182,0.3272,0.3457,0.3608,0.3818,0.4037,0.3984,0.4405,0.4383,0.4563,0.4568,0.4615,0.4616,0.4721,0.461,0.461,0.4609,0.4608,0,0.3462,0.3396,0.3335,0.3152,0.3124,0.3079,0.3019,0.3005,0.3086,0.3129,0.3249,0.3354,0.352,0.3508,0.3837,0.3748,0.3902,0.4026,0.4044,0.4076,0.4119,0.4291,0.4572,0.4445,0.4252,0.4248,0.4244,0,0.3394,0.3343,0.3266,0.3171,0.311,0.3026,0.3019,0.3006,0.3021,0.3089,0.3196,0.3318,0.3314,0.3404,0.3496,0.3699,0.3806,0.3634,0.401,0.402,0.3961,0.4218,0.4205,0.4504,0.4195,0.4201,0.4204,0,0.3347,0.3214,0.3208,0.3093,0.3003,0.3,0.2995,0.2978,0.2963,0.3045,0.309,0.3248,0.3305,0.336,0.3441,0.3529,0.3729,0.3579,0.3587,0.3621,0.4102,0.4145,0.4183,0.3821,0.3826,0.3829,0.4165,0,0.3105,0.3088,0.3129,0.2991,0.2996,0.3013,0.293,0.2966,0.2913,0.2892,0.3057,0.3166,0.3272,0.3344,0.3342,0.3514,0.3561,0.3585,0.3449,0.3618,0.3755,0.3785,0.3412,0.3411,0.3411,0.341,0,0,0.2986,0.2978,0.2949,0.2933,0.2891,0.2809,0.2794,0.2798,0.2819,0.2837,0.2825,0.3041,0.3092,0.3227,0.328,0.3374,0.3478,0.3254,0.3563,0.358,0.3596,0.373,0.376,0.3409,0.3409,0.3409,0.3408,0,0.286,0.2876,0.2899,0.2877,0.2822,0.2766,0.2776,0.2741,0.2728,0.2799,0.279,0.291,0.3048,0.309,0.3129,0.3353,0.3349,0.3436,0.3392,0.3554,0.3571,0.3587,0.3722,0.375,0.3407,0.3407,0.3407,0,0.2676,0.263,0.2648,0.267,0.2631,0.2617,0.2547,0.26,0.2571,0.2565,0.2599,0.2704,0.2785,0.2932,0.3005,0.294,0.3217,0.3122,0.3133,0.3064,0.3224,0.3247,0.3267,0.2981,0.2979,0.2976,0,0,0.2558,0.2583,0.2523,0.2629,0.2621,0.2537,0.2563,0.2513,0.2534,0.2551,0.2558,0.261,0.2713,0.2747,0.2863,0.2996,0.3034,0.3061,0.3081,0.3097,0.3038,0.3201,0.3226,0.2968,0.2967,0.2967,0,0,0.2507,0.2416,0.2321,0.2465,0.2453,0.2417,0.2493,0.2422,0.2488,0.2458,0.2425,0.244,0.2604,0.2632,0.2516,0.2777,0.2711,0.2737,0.269,0.2716,0.2736,0.2623,0.2395,0,0,0,0,0,0.2253,0.2414,0.2327,0.2334,0.236,0.2434,0.2441,0.2395,0.2292,0.2379,0.2384,0.2314,0.2586,0.2482,0.2503,0.2554,0.2853,0.2873,0.2892,0.2873,0.29,0.2923,0,0,0,0,0,0,0.2255,0.2264,0.2323,0.2286,0.2291,0.2428,0.2278,0.227,0.2286,0.2275,0.2312,0.2315,0.2303,0.2467,0.2487,0.2535,0.2388,0.2861,0.2878,0.2894,0.2882,0.2905,0.2924,0,0,0,0,0,0.2256,0.2263,0.2316,0.2285,0.229,0.225,0.2275,0.2267,0.2286,0.2288,0.2288,0.225,0.2305,0.2322,0.2479,0.2526,0.2373,0.2381,0.2872,0.2886,0.2898,0.2893,0,0,0,0,0,0,0.2257,0.2268,0.2316,0.2316,0.2243,0.2245,0.2244,0.2264,0.2298,0.2297,0.2224,0.2216,0.2309,0.2321,0.2334,0.2524,0.2361,0.2369,0.2374,0.2882,0.2893,0.2903,0,0,0,0,0,0,0.2263,0.2268,0.2316,0.2266,0.226,0.2241,0.2239,0.2335,0.2302,0.2235,0.2227,0.222,0.2302,0.2321,0.2331,0.2481,0.2353,0.236,0.2365,0.2369,0.2891,0.2899,0,0,0,0,0,0,0.2264,0.2269,0.2266,0.2262,0.2256,0.2255,0.2327,0.2369,0.2219,0.2237,0.2208,0.2203,0.2304,0.2313,0.2329,0.2475,0.2479,0.2353,0.2358,0.2362,0.2364,0,0,0,0,0,0,0,0.2266,0.2245,0.231,0.2258,0.2253,0.2312,0.2313,0.2314,0.2218,0.2214,0.2209,0.2205,0.231,0.2318,0.2326,0.247,0,0,0.2352,0.2356,0,0,0,0,0,0,0,0,0.2242,0.2244,0.231,0.231,0.2309,0.2312,0.2313,0.2314,0.2217,0.2214,0.221,0.2206,0.2312,0.2318,0.2325,0,0,0,0,0,0,0,0,0,0,0,0,0,0,0,0.231,0.231,0,0.2313,0.2313,0.2313,0.2217,0.2214,0.2211,0.2208,0.2314,0.2319,0.2325,0,0,0,0,0,0,0,0,0,0,0,0,0,0,0,0,0,0,0,0,0,0,0,0,0,0,0,0,0,0,0,0,0,0,0,0,0,0,0,0,0,0,0,0,0,0,0,0,0,0,0,0,0,0,0,0,0,0,0,0,0,0,0,0,0,0,0,0,0]}],[{"header":{"parameterUnit":"kt","parameterCategory":2,"dx":1,"dy":1,"la1":30.253999710083008,"la2":30.299108505249023,"lo1":-89.0895004272461,"lo2":-89.04439544677734,"nx":28,"ny":28,"refTime":"2022-10-09T21:00:00:Z","depth":"0","parameterNumber":3,"parameterNumberName":"V-component_of_CURRENTS"},"data":[0.0332,0.0341,0.0372,0.0514,0.0605,0.0782,0.0923,0.1118,0.1349,0.1705,0.194,0.2151,0.2115,0.115,0.0366,0.0096,-0.0313,-0.0357,-0.0638,-0.0305,-0.029,-0.0276,-0.0288,-0.0429,-0.043,-0.0974,-0.0979,-0.0983,0.0365,0.0385,0.0412,0.0508,0.0615,0.0695,0.0937,0.1066,0.131,0.1605,0.1802,0.1991,0.1697,0.1337,0.0803,0.032,0.0086,0.0036,-0.0041,-0.0133,0.0301,0.0317,0.0303,0.0303,0.0303,0.0303,0.0304,0.0304,0.0434,0.0424,0.0455,0.0506,0.0599,0.0768,0.0865,0.1055,0.1282,0.1594,0.1708,0.1879,0.177,0.1325,0.0953,0.046,0.0389,0.0285,0.0174,0.0098,-0.0008,0.0451,0.0455,0.0454,0.0453,0.0451,0.045,0,0.0503,0.0528,0.0509,0.0571,0.0632,0.0725,0.0862,0.0996,0.122,0.1406,0.1632,0.1717,0.1576,0.1391,0.1015,0.0757,0.0363,0.0462,0.0256,0.0239,0.0148,0.0007,0.0458,0.0515,0.0514,0.0513,0.0512,0.0512,0.0618,0.0591,0.0617,0.0635,0.0626,0.0697,0.0769,0.0914,0.1045,0.1326,0.1429,0.1488,0.1536,0.1238,0.093,0.0622,0.039,0.045,0.0373,0.018,0.0033,-0.0058,-0.0153,0.0499,0.05,0.0502,0.0503,0,0.07,0.0672,0.0628,0.0641,0.067,0.0693,0.0801,0.0903,0.1044,0.1231,0.1292,0.138,0.1314,0.1131,0.0901,0.0683,0.0389,0.0383,0.0511,0.0486,0.0158,0.0053,-0.0081,-0.0197,0.023,0.0229,0.0229,0,0.0764,0.0725,0.0697,0.065,0.0696,0.0657,0.0757,0.0806,0.0942,0.1079,0.1111,0.1213,0.1039,0.0972,0.0752,0.0545,0.0587,0.0316,0.0275,0.0378,0.0381,0.0164,0.0051,0.0335,0.0336,0.0336,0.0336,0,0.0829,0.0714,0.0668,0.0624,0.0564,0.0596,0.0612,0.0685,0.0761,0.0894,0.0999,0.0985,0.0997,0.0853,0.0652,0.0611,0.0506,0.0426,0.0278,0.0274,0.0308,0.0305,0.0246,0.0337,0.0337,0.0337,0.0337,0,0.0799,0.0723,0.063,0.0592,0.0563,0.0538,0.0602,0.0605,0.0701,0.0747,0.0805,0.0802,0.0788,0.0672,0.0547,0.0558,0.0427,0.0328,0.0324,0.0229,0.0146,0.0159,0.0348,0.0164,0.0238,0.0237,0.0237,0,0.0915,0.0753,0.063,0.0563,0.0482,0.0426,0.0449,0.044,0.047,0.054,0.0528,0.0573,0.0451,0.0478,0.0437,0.0334,0.0307,0.0307,0.0171,0.0167,0.0073,0.0249,0.0366,0.034,0.0233,0.0233,0.0234,0,0.093,0.07,0.0678,0.0591,0.0414,0.0384,0.039,0.0348,0.0387,0.0355,0.0409,0.0382,0.0377,0.035,0.0289,0.0261,0.0292,0.0177,0.0172,0.0098,0.0271,0.0244,0.0244,0.0269,0.027,0.0271,0.023,0,0.0767,0.0695,0.0698,0.0425,0.0392,0.0366,0.022,0.0249,0.0195,0.0125,0.0201,0.0138,0.0126,0.0138,0.0048,0.012,0.0078,0.0031,-0.0114,0.0051,0.0017,0.0021,-0.0072,-0.0075,-0.0078,-0.0081,0,0,0.0788,0.0627,0.0481,0.0363,0.0295,0.0155,0.0083,0.0046,-0.0081,-0.0063,-0.0128,-0.0122,-0.0183,-0.015,-0.0115,-0.0094,-0.0119,-0.0158,0.0003,0.0013,0.0022,-0.0004,0.0003,-0.0086,-0.0087,-0.0088,-0.0089,0,0.0607,0.0554,0.0465,0.0364,0.0186,0.0075,0.0072,-0.0104,-0.0153,-0.0153,-0.029,-0.0269,-0.0265,-0.033,-0.0357,-0.0141,-0.027,-0.0103,-0.0011,-0.0021,-0.0007,0.0005,-0.0017,-0.0009,-0.0096,-0.0095,-0.0095,0,0.0432,0.0264,0.0226,0.0066,-0.0038,-0.0128,-0.028,-0.0306,-0.0368,-0.0518,-0.0535,-0.0556,-0.0616,-0.055,-0.0519,-0.0582,-0.0419,-0.0443,-0.0425,-0.0455,-0.0475,-0.0456,-0.0438,-0.0681,-0.0683,-0.0685,0,0,0.0277,0.0196,-0.0033,0.0003,-0.0052,-0.0247,-0.0277,-0.0406,-0.0499,-0.0529,-0.0615,-0.0663,-0.0673,-0.0676,-0.0678,-0.0572,-0.0639,-0.0514,-0.0487,-0.0464,-0.0481,-0.0494,-0.0474,-0.0692,-0.0692,-0.0692,0,0,0.0208,-0.0097,-0.0219,-0.0195,-0.0311,-0.0503,-0.046,-0.0588,-0.0625,-0.0647,-0.0806,-0.0827,-0.0761,-0.0792,-0.088,-0.0736,-0.0846,-0.0828,-0.0744,-0.071,-0.0683,-0.072,-0.1073,0,0,0,0,0,-0.0163,-0.0069,-0.0177,-0.0207,-0.0387,-0.0451,-0.047,-0.064,-0.0742,-0.0699,-0.0792,-0.0903,-0.0876,-0.0958,-0.0956,-0.0885,-0.0789,-0.0772,-0.0756,-0.062,-0.0583,-0.0553,0,0,0,0,0,0,-0.0177,-0.0212,-0.018,-0.0373,-0.0416,-0.0455,-0.0665,-0.0706,-0.0751,-0.0778,-0.0883,-0.0906,-0.1015,-0.0966,-0.0963,-0.0893,-0.1074,-0.0782,-0.0768,-0.0755,-0.0607,-0.0578,-0.0552,0,0,0,0,0,-0.0188,-0.0217,-0.0472,-0.0373,-0.041,-0.0619,-0.067,-0.0707,-0.0733,-0.0883,-0.0912,-0.0864,-0.1009,-0.1015,-0.0965,-0.0893,-0.1077,-0.1076,-0.0773,-0.0761,-0.0751,-0.0593,0,0,0,0,0,0,-0.0197,-0.0223,-0.0482,-0.0498,-0.0436,-0.0619,-0.0657,-0.0706,-0.0837,-0.0868,-0.0871,-0.0891,-0.1002,-0.1009,-0.1013,-0.0887,-0.108,-0.1078,-0.1077,-0.0764,-0.0755,-0.0747,0,0,0,0,0,0,-0.021,-0.0235,-0.049,-0.0559,-0.0585,-0.0618,-0.0652,-0.061,-0.0833,-0.0814,-0.0838,-0.0878,-0.0987,-0.1003,-0.1007,-0.0935,-0.1082,-0.108,-0.1079,-0.1078,-0.0757,-0.075,0,0,0,0,0,0,-0.0223,-0.0245,-0.0556,-0.0574,-0.0597,-0.078,-0.0579,-0.0742,-0.0936,-0.0802,-0.0955,-0.0964,-0.0976,-0.0984,-0.1002,-0.0927,-0.0933,-0.1082,-0.1081,-0.108,-0.1079,0,0,0,0,0,0,0,-0.0233,-0.0058,-0.04,-0.0587,-0.0607,-0.0649,-0.0652,-0.0655,-0.0938,-0.0945,-0.0953,-0.096,-0.1091,-0.1089,-0.1088,-0.0921,0,0,-0.1082,-0.1081,0,0,0,0,0,0,0,0,-0.0052,-0.0057,-0.0401,-0.0405,-0.0409,-0.0649,-0.0652,-0.0654,-0.0939,-0.0945,-0.0952,-0.0957,-0.1091,-0.1089,-0.1088,0,0,0,0,0,0,0,0,0,0,0,0,0,0,0,-0.0401,-0.0405,0,-0.065,-0.0652,-0.0654,-0.094,-0.0945,-0.095,-0.0955,-0.109,-0.1089,-0.1088,0,0,0,0,0,0,0,0,0,0,0,0,0,0,0,0,0,0,0,0,0,0,0,0,0,0,0,0,0,0,0,0,0,0,0,0,0,0,0,0,0,0,0,0,0,0,0,0,0,0,0,0,0,0,0,0,0,0,0,0,0,0,0,0,0,0,0,0,0]}]],[[{"header":{"parameterUnit":"kt","parameterCategory":2,"dx":1,"dy":1,"la1":30.253999710083008,"la2":30.299108505249023,"lo1":-89.0895004272461,"lo2":-89.04439544677734,"nx":28,"ny":28,"refTime":"2022-10-09T21:00:00:Z","depth":"2","parameterNumber":2,"parameterNumberName":"U-component_of_CURRENTS"},"data":[0.081,0.0823,0.0871,0.0985,0.1112,0.1238,0.1303,0.1265,0.1247,0.1088,0.104,0.106,0.1155,0.0949,0.092,0.0898,0.1009,0.0829,0.1125,0.1247,0.1281,0.1361,0.1318,0,0,0,0,0,0.086,0.0902,0.0954,0.1095,0.1176,0.1324,0.1426,0.1454,0.1471,0.1461,0.1472,0.1247,0.1194,0.1267,0.1136,0.1067,0.1086,0.1025,0.1099,0.1135,0.1169,0.112,0.0801,0.08,0.08,0.08,0,0,0.0962,0.0964,0.1054,0.1182,0.13,0.1405,0.1488,0.1596,0.1644,0.1691,0.1754,0.1731,0.1731,0.1518,0.1467,0.1412,0.1499,0.1419,0.1437,0.1459,0.1417,0.1382,0.1181,0.1182,0.1184,0.1186,0.1187,0,0.1085,0.1137,0.1188,0.1321,0.1443,0.157,0.1735,0.1761,0.195,0.1982,0.2008,0.2033,0.2016,0.1888,0.1804,0.1722,0.1788,0.1681,0.1998,0.1719,0.1691,0.1714,0.174,0.1555,0.1559,0.1562,0.1565,0.1566,0.1248,0.1254,0.1425,0.1486,0.1581,0.1737,0.1823,0.2013,0.2056,0.2193,0.2172,0.2244,0.2234,0.2157,0.207,0.1996,0.2106,0.1784,0.1774,0.2047,0.2067,0.2081,0.2093,0.161,0.1605,0.16,0.1596,0,0.1332,0.1438,0.1496,0.1669,0.1745,0.1804,0.2019,0.2056,0.2174,0.2216,0.2258,0.2323,0.2339,0.2355,0.234,0.2262,0.2203,0.2151,0.2018,0.2003,0.2114,0.2121,0.1979,0.1974,0.197,0.1966,0.1963,0,0.1495,0.1538,0.1714,0.1728,0.1807,0.1939,0.2019,0.2083,0.2179,0.2212,0.2308,0.2322,0.2395,0.2388,0.2387,0.2304,0.2364,0.2235,0.2239,0.2139,0.2121,0.2433,0.2442,0.2358,0.2359,0.2359,0.236,0,0.1599,0.1699,0.1741,0.1779,0.1906,0.1965,0.2055,0.2129,0.2173,0.2259,0.2307,0.2341,0.2396,0.2389,0.2415,0.2445,0.238,0.2425,0.2287,0.2281,0.2165,0.2149,0.236,0.236,0.236,0.236,0.2361,0,0.1716,0.1772,0.1789,0.1939,0.1967,0.1992,0.2107,0.2128,0.219,0.2258,0.2318,0.2392,0.2397,0.244,0.2429,0.2469,0.2465,0.2463,0.2462,0.2363,0.2408,0.2181,0.2103,0.2472,0.2473,0.2474,0.2475,0,0.1833,0.1844,0.1931,0.1954,0.1994,0.2115,0.2117,0.2181,0.226,0.2311,0.2361,0.2423,0.2463,0.2525,0.2493,0.2538,0.2488,0.252,0.2543,0.2542,0.2385,0.2344,0.2207,0.213,0.2487,0.2486,0.2485,0,0.1931,0.2044,0.205,0.2094,0.2184,0.223,0.2222,0.2298,0.2297,0.2387,0.2408,0.2441,0.253,0.2534,0.2578,0.2547,0.2507,0.2605,0.2606,0.2524,0.2495,0.2377,0.2358,0.2558,0.2556,0.2555,0.2495,0,0.2108,0.2158,0.2151,0.2166,0.2228,0.226,0.2319,0.2377,0.2429,0.2455,0.2532,0.2588,0.2639,0.2646,0.2659,0.2635,0.2666,0.2699,0.2649,0.2665,0.2646,0.2638,0.2748,0.2749,0.275,0.275,0,0,0.2213,0.2242,0.232,0.2319,0.2355,0.2436,0.2436,0.2448,0.2518,0.2549,0.2569,0.2664,0.2681,0.2654,0.2654,0.272,0.2734,0.2668,0.2691,0.2684,0.2678,0.2657,0.2648,0.2752,0.2752,0.2753,0.2753,0,0.226,0.2357,0.2316,0.2371,0.242,0.2444,0.2466,0.2512,0.2512,0.2584,0.2561,0.2612,0.2704,0.2661,0.2654,0.2735,0.2704,0.2776,0.2708,0.27,0.2692,0.2685,0.2662,0.2654,0.2755,0.2755,0.2755,0,0.2337,0.2366,0.2348,0.2443,0.2448,0.2451,0.2468,0.2484,0.246,0.2504,0.2503,0.2567,0.2586,0.2622,0.2651,0.2634,0.2672,0.2696,0.2695,0.2663,0.2652,0.2645,0.2639,0.27,0.2699,0.2698,0,0,0.2362,0.2359,0.2423,0.2444,0.2474,0.2477,0.249,0.2469,0.2486,0.2488,0.2511,0.2529,0.255,0.2564,0.2613,0.269,0.2676,0.2682,0.2685,0.2686,0.2655,0.2645,0.264,0.2695,0.2695,0.2695,0,0,0.2331,0.2345,0.2359,0.2403,0.2448,0.2433,0.2433,0.2435,0.2466,0.2429,0.2423,0.2428,0.249,0.2524,0.2479,0.2542,0.2543,0.2555,0.2471,0.2475,0.2478,0.2412,0.2383,0,0,0,0,0,0.2318,0.2354,0.237,0.2378,0.241,0.2457,0.246,0.2403,0.2351,0.2385,0.2388,0.2341,0.2474,0.2434,0.2454,0.2423,0.2649,0.2657,0.2665,0.258,0.2584,0.2587,0,0,0,0,0,0,0.2321,0.2333,0.2367,0.2359,0.2365,0.2454,0.2345,0.2333,0.2345,0.233,0.2342,0.2341,0.2314,0.2422,0.2441,0.2409,0.2377,0.2652,0.2659,0.2665,0.2581,0.2584,0.2587,0,0,0,0,0,0.2323,0.2333,0.2397,0.2357,0.2362,0.2312,0.2341,0.2329,0.2337,0.2326,0.2321,0.2291,0.2318,0.2331,0.2433,0.2399,0.2364,0.2371,0.2657,0.2662,0.2667,0.2583,0,0,0,0,0,0,0.2325,0.2324,0.2397,0.2396,0.2309,0.2304,0.2302,0.2326,0.2331,0.2326,0.2273,0.2262,0.2321,0.2331,0.2342,0.2393,0.2353,0.236,0.2365,0.2661,0.2665,0.2669,0,0,0,0,0,0,0.2318,0.2324,0.2397,0.234,0.2332,0.2298,0.2296,0.2386,0.2334,0.2279,0.2269,0.2269,0.2319,0.2332,0.234,0.2483,0.2345,0.2352,0.2356,0.2359,0.2664,0.2668,0,0,0,0,0,0,0.232,0.2325,0.234,0.2334,0.2327,0.2317,0.2379,0.2423,0.2256,0.2281,0.2243,0.2237,0.2323,0.2329,0.2339,0.2479,0.2482,0.2345,0.235,0.2353,0.2355,0,0,0,0,0,0,0,0.2321,0.23,0.2399,0.2329,0.2323,0.2391,0.2391,0.2391,0.2255,0.225,0.2244,0.2239,0.2306,0.2313,0.2321,0.2476,0,0,0.2344,0.2348,0,0,0,0,0,0,0,0,0.2296,0.2299,0.2399,0.2399,0.2399,0.2391,0.2391,0.2391,0.2254,0.225,0.2245,0.2241,0.2308,0.2314,0.232,0,0,0,0,0,0,0,0,0,0,0,0,0,0,0,0.2399,0.2399,0,0.2391,0.2391,0.2391,0.2253,0.225,0.2246,0.2243,0.231,0.2315,0.232,0,0,0,0,0,0,0,0,0,0,0,0,0,0,0,0,0,0,0,0,0,0,0,0,0,0,0,0,0,0,0,0,0,0,0,0,0,0,0,0,0,0,0,0,0,0,0,0,0,0,0,0,0,0,0,0,0,0,0,0,0,0,0,0,0,0,0,0,0]}],[{"header":{"parameterUnit":"kt","parameterCategory":2,"dx":1,"dy":1,"la1":30.253999710083008,"la2":30.299108505249023,"lo1":-89.0895004272461,"lo2":-89.04439544677734,"nx":28,"ny":28,"refTime":"2022-10-09T21:00:00:Z","depth":"2","parameterNumber":3,"parameterNumberName":"V-component_of_CURRENTS"},"data":[0.0369,0.0446,0.0505,0.0705,0.0816,0.1014,0.1133,0.1291,0.1305,0.1193,0.1035,0.0777,0.0346,0.0098,-0.0192,-0.0311,-0.0291,-0.0332,-0.0305,-0.0221,-0.0206,-0.0415,-0.0402,0,0,0,0,0,0.0361,0.0419,0.0479,0.0624,0.0724,0.0779,0.0915,0.104,0.122,0.115,0.1166,0.0718,0.0374,0.0072,-0.0226,-0.043,-0.0419,-0.0478,-0.0441,-0.0432,-0.0423,-0.0418,-0.052,-0.0519,-0.0519,-0.0518,0,0,0.0357,0.0386,0.0486,0.0584,0.0656,0.0758,0.0851,0.0947,0.1038,0.1151,0.1051,0.0943,0.0583,0.0103,-0.0105,-0.029,-0.0305,-0.0408,-0.0402,-0.0395,-0.0392,-0.0363,-0.0485,-0.0485,-0.0485,-0.0484,-0.0484,0,0.0387,0.0436,0.0495,0.0597,0.0669,0.073,0.0822,0.0859,0.095,0.0987,0.1025,0.0959,0.0664,0.0362,0.0036,-0.0124,-0.0215,-0.0285,-0.0176,-0.0284,-0.025,-0.032,-0.0314,-0.0354,-0.0353,-0.0352,-0.0351,-0.0351,0.0406,0.0461,0.0587,0.063,0.0689,0.0765,0.0794,0.0851,0.0875,0.0918,0.092,0.0819,0.0716,0.0393,0.0155,-0.0083,-0.009,-0.0248,-0.0278,-0.0149,-0.0222,-0.0219,-0.0217,-0.0337,-0.0339,-0.034,-0.0341,0,0.0405,0.0496,0.0588,0.0694,0.0728,0.0769,0.083,0.0835,0.0859,0.0865,0.0874,0.0774,0.064,0.0458,0.0242,0.0122,-0.0053,-0.0114,-0.0109,-0.0181,-0.0208,-0.0208,-0.0235,-0.0237,-0.0238,-0.024,-0.0241,0,0.0422,0.0497,0.0609,0.0646,0.0719,0.0752,0.0789,0.0783,0.0772,0.0777,0.0714,0.0682,0.0515,0.0399,0.0265,0.0088,0.0096,-0.0059,-0.0135,-0.0162,-0.017,-0.0104,-0.0108,-0.0064,-0.0064,-0.0063,-0.0063,0,0.0372,0.0485,0.0579,0.0603,0.065,0.0696,0.0713,0.0675,0.0665,0.0635,0.0621,0.0546,0.0497,0.0389,0.023,0.0216,0.007,-0.001,-0.012,-0.0125,-0.0184,-0.0195,-0.0062,-0.0062,-0.0062,-0.0062,-0.0062,0,0.0349,0.0406,0.0505,0.0577,0.0593,0.0613,0.0624,0.0617,0.0561,0.0534,0.0507,0.0429,0.039,0.0325,0.0201,0.0216,0.0126,0.0027,0.0019,-0.0028,-0.0157,-0.0268,-0.0219,-0.0115,-0.0115,-0.0115,-0.0115,0,0.0305,0.0386,0.04,0.0467,0.0511,0.0489,0.0489,0.0463,0.0425,0.0393,0.0323,0.0282,0.0242,0.0216,0.0179,0.0048,0.0031,0.005,-0.0113,-0.0115,-0.0188,-0.0122,-0.0158,-0.0215,-0.0114,-0.0114,-0.0114,0,0.025,0.0314,0.0326,0.0379,0.0378,0.0356,0.0364,0.0358,0.0342,0.03,0.0286,0.0223,0.0188,0.0152,0.0074,0.0035,0.0023,-0.0018,-0.0023,-0.0071,-0.0076,-0.0118,-0.0123,-0.0056,-0.0055,-0.0055,-0.0114,0,0.03,0.0322,0.0316,0.033,0.0313,0.0318,0.0267,0.0261,0.0217,0.0166,0.0147,0.0068,0.0024,-0.0022,-0.0061,-0.0065,-0.0089,-0.0159,-0.0221,-0.0146,-0.0181,-0.0181,-0.0201,-0.0203,-0.0204,-0.0205,0,0,0.0293,0.0297,0.0234,0.0254,0.0245,0.0166,0.019,0.0138,0.0063,0.006,0.0024,-0.0064,-0.0134,-0.0172,-0.0139,-0.018,-0.0204,-0.0188,-0.0167,-0.0162,-0.0158,-0.0188,-0.0187,-0.0207,-0.0207,-0.0207,-0.0208,0,0.0301,0.0259,0.025,0.0234,0.0189,0.0136,0.0135,0.0047,0.0016,0.0005,-0.008,-0.0109,-0.0174,-0.0228,-0.0269,-0.0195,-0.0295,-0.0216,-0.0115,-0.0176,-0.017,-0.0165,-0.0193,-0.0191,-0.0211,-0.021,-0.021,0,0.032,0.0269,0.0229,0.0168,0.0115,0.0102,0.0008,-0.0047,-0.0064,-0.0164,-0.0185,-0.0239,-0.0308,-0.032,-0.0328,-0.0354,-0.0358,-0.0364,-0.0357,-0.0308,-0.0373,-0.0365,-0.0357,-0.0464,-0.0465,-0.0466,0,0,0.0339,0.0295,0.0209,0.0155,0.0143,0.0038,-0.001,-0.0065,-0.0135,-0.0159,-0.0224,-0.0275,-0.0323,-0.0344,-0.038,-0.0384,-0.0414,-0.0396,-0.0384,-0.0374,-0.0322,-0.0382,-0.0373,-0.047,-0.047,-0.047,0,0,0.0312,0.0202,0.0191,0.012,0.0071,-0.0072,-0.0104,-0.0163,-0.0204,-0.0211,-0.0314,-0.0332,-0.0344,-0.0377,-0.0411,-0.0429,-0.0473,-0.0468,-0.0431,-0.0417,-0.0405,-0.0338,-0.0534,0,0,0,0,0,0.0257,0.0223,0.0216,0.0189,0.0032,-0.0048,-0.007,-0.0177,-0.023,-0.0222,-0.0272,-0.0359,-0.0401,-0.0433,-0.0451,-0.0467,-0.0516,-0.0508,-0.05,-0.0453,-0.0437,-0.0423,0,0,0,0,0,0,0.0246,0.0217,0.0214,0.0073,0.0034,-0.0049,-0.0142,-0.017,-0.0231,-0.0242,-0.0345,-0.0362,-0.043,-0.0433,-0.0446,-0.0461,-0.053,-0.0513,-0.0506,-0.0499,-0.0447,-0.0434,-0.0423,0,0,0,0,0,0.0236,0.0212,-0.0006,0.0071,0.0038,-0.0111,-0.0142,-0.0166,-0.0206,-0.0325,-0.0346,-0.0285,-0.0428,-0.0444,-0.0441,-0.0453,-0.0521,-0.0526,-0.0508,-0.0503,-0.0498,-0.0441,0,0,0,0,0,0,0.0228,0.0198,-0.0016,-0.0032,0.0064,-0.0107,-0.0134,-0.0162,-0.0285,-0.0308,-0.0269,-0.0276,-0.0426,-0.0439,-0.0452,-0.0445,-0.0514,-0.0519,-0.0522,-0.0504,-0.05,-0.0496,0,0,0,0,0,0,0.0209,0.0187,-0.0023,-0.0026,-0.0042,-0.0103,-0.0127,-0.0171,-0.0283,-0.0219,-0.0231,-0.0271,-0.0401,-0.0435,-0.0445,-0.0511,-0.0509,-0.0513,-0.0516,-0.0518,-0.05,-0.0497,0,0,0,0,0,0,0.0197,0.0178,-0.0022,-0.0034,-0.0049,-0.0227,-0.0143,-0.0288,-0.0318,-0.021,-0.0321,-0.0323,-0.0395,-0.0407,-0.0441,-0.0502,-0.0509,-0.0509,-0.0512,-0.0514,-0.0515,0,0,0,0,0,0,0,0.0187,0.0348,0.0067,-0.0041,-0.0054,-0.018,-0.0183,-0.0186,-0.0318,-0.0319,-0.0321,-0.0322,-0.0482,-0.0487,-0.0492,-0.0494,0,0,-0.0508,-0.051,0,0,0,0,0,0,0,0,0.0353,0.0349,0.0067,0.0063,0.0059,-0.018,-0.0183,-0.0186,-0.0318,-0.0319,-0.0321,-0.0322,-0.0484,-0.0488,-0.0492,0,0,0,0,0,0,0,0,0,0,0,0,0,0,0,0.0066,0.0063,0,-0.0181,-0.0183,-0.0185,-0.0318,-0.0319,-0.032,-0.0321,-0.0485,-0.0488,-0.0492,0,0,0,0,0,0,0,0,0,0,0,0,0,0,0,0,0,0,0,0,0,0,0,0,0,0,0,0,0,0,0,0,0,0,0,0,0,0,0,0,0,0,0,0,0,0,0,0,0,0,0,0,0,0,0,0,0,0,0,0,0,0,0,0,0,0,0,0,0]}]],[[{"header":{"parameterUnit":"kt","parameterCategory":2,"dx":1,"dy":1,"la1":30.253999710083008,"la2":30.299108505249023,"lo1":-89.0895004272461,"lo2":-89.04439544677734,"nx":28,"ny":28,"refTime":"2022-10-09T21:00:00:Z","depth":"4","parameterNumber":2,"parameterNumberName":"U-component_of_CURRENTS"},"data":[-0.0159,-0.0172,-0.0158,-0.0134,-0.0122,-0.0093,-0.0069,-0.0027,0.0023,0.0091,0.012,0.018,0.0228,0.0223,0.0298,0.0308,0.0277,0.0369,0.037,0.0303,0.0297,0.0291,0.0328,0,0,0,0,0,-0.0123,-0.0134,-0.0146,-0.0148,-0.0124,-0.0122,-0.0085,-0.0049,0.0024,0.0086,0.0144,0.0176,0.0251,0.0268,0.0303,0.0292,0.0289,0.0334,0.0276,0.0299,0.0292,0.033,0,0,0,0,0,0,-0.0074,-0.0095,-0.0125,-0.014,-0.0137,-0.0111,-0.009,-0.0024,0.0037,0.0159,0.0155,0.0225,0.0263,0.0312,0.0295,0.0324,0.0306,0.0303,0.0296,0.0289,0.0321,0.0375,0.0377,0,0,0,0,0,-0.0048,-0.0059,-0.0088,-0.0119,-0.0115,-0.0109,-0.0063,-0.0028,0.008,0.0126,0.0206,0.026,0.029,0.0304,0.0333,0.0289,0.0273,0.0279,0.0274,0.025,0.0286,0.0276,0.0275,0.0265,0.0264,0.0263,0.0263,0,-0.0014,-0.0043,-0.0083,-0.0099,-0.0101,-0.0077,-0.0051,0.0034,0.0081,0.018,0.0197,0.0262,0.0302,0.03,0.0288,0.0267,0.0257,0.0261,0.0236,0.0275,0.0266,0.0267,0.0268,0.0257,0.0257,0.0258,0.0258,0,-0.0005,-0.0032,-0.0064,-0.0076,-0.0076,-0.006,0.001,0.0048,0.0135,0.0189,0.0221,0.0296,0.0311,0.0317,0.0264,0.0266,0.0227,0.0225,0.0207,0.0195,0.0256,0.026,0.0248,0.025,0.0251,0.0253,0.0254,0,-0.0001,-0.0018,-0.0049,-0.0061,-0.0066,-0.0016,0.0025,0.0073,0.0146,0.0187,0.0261,0.0284,0.0296,0.0291,0.0258,0.0252,0.0209,0.0226,0.0216,0.0168,0.0172,0.0163,0.0167,0.0134,0.0135,0.0135,0.0135,0,0.0022,-0.0008,-0.0035,-0.0033,-0.0017,0.0004,0.0043,0.0108,0.0147,0.0217,0.0265,0.0271,0.0303,0.0261,0.0267,0.026,0.0212,0.0185,0.0215,0.0219,0.0165,0.0169,0.0135,0.0135,0.0135,0.0135,0.0135,0,0.0045,0.0017,-0.0015,0.0003,0.0013,0.0024,0.0089,0.0112,0.0168,0.0219,0.026,0.0293,0.0291,0.0309,0.0263,0.0281,0.0257,0.0231,0.0229,0.029,0.0283,0.0266,0.0208,0.0209,0.0209,0.021,0.021,0,0.0082,0.0041,0.0054,0.0044,0.0039,0.0106,0.0113,0.0159,0.0217,0.0257,0.0272,0.0291,0.031,0.0334,0.0312,0.028,0.0259,0.0281,0.0225,0.0225,0.0317,0.0279,0.0241,0.0218,0.0217,0.0216,0.0216,0,0.0119,0.0102,0.0106,0.0116,0.0162,0.0163,0.0184,0.021,0.0258,0.0299,0.0332,0.0289,0.0345,0.032,0.0314,0.0292,0.0271,0.0296,0.0294,0.0322,0.0214,0.028,0.0282,0.0246,0.0245,0.0244,0.0221,0,0.0171,0.0156,0.0144,0.0164,0.0175,0.0181,0.0214,0.0262,0.0349,0.0377,0.0388,0.037,0.0369,0.0349,0.0338,0.03,0.0305,0.0288,0.0327,0.0281,0.0274,0.027,0.032,0.032,0.032,0.032,0,0,0.0239,0.0198,0.022,0.0215,0.0217,0.0301,0.0301,0.033,0.0382,0.0405,0.0441,0.0428,0.0426,0.0367,0.0334,0.0321,0.0313,0.037,0.029,0.0287,0.0284,0.0277,0.0273,0.032,0.032,0.032,0.032,0,0.025,0.0254,0.0232,0.024,0.0265,0.0281,0.0318,0.0364,0.0408,0.0434,0.0442,0.0449,0.0442,0.0393,0.0371,0.0325,0.0354,0.0315,0.0328,0.0291,0.0288,0.0285,0.0278,0.0274,0.032,0.032,0.032,0,0.0309,0.0299,0.028,0.0263,0.0281,0.0276,0.034,0.037,0.0386,0.0429,0.0477,0.0473,0.0436,0.0397,0.0399,0.0415,0.0389,0.0403,0.0401,0.042,0.0384,0.0379,0.0375,0.0439,0.044,0.044,0,0,0.0337,0.0315,0.0301,0.0264,0.027,0.0322,0.0336,0.0375,0.0397,0.0431,0.0467,0.0476,0.0444,0.0459,0.0427,0.043,0.0428,0.0421,0.0415,0.0411,0.0428,0.0391,0.0386,0.0443,0.0443,0.0443,0,0,0.0343,0.0316,0.0338,0.0284,0.029,0.0287,0.0293,0.0367,0.0416,0.0453,0.0475,0.0478,0.048,0.0478,0.0513,0.045,0.0465,0.046,0.0476,0.0469,0.0463,0.0488,0.0526,0,0,0,0,0,0.0356,0.0311,0.0331,0.032,0.0296,0.0274,0.0278,0.0311,0.0406,0.0424,0.0453,0.0489,0.0453,0.0484,0.0492,0.0494,0.048,0.0474,0.0467,0.0486,0.0478,0.0472,0,0,0,0,0,0,0.0351,0.0337,0.0331,0.0318,0.0312,0.0276,0.0315,0.0326,0.0402,0.0414,0.0479,0.0486,0.0462,0.0483,0.049,0.0491,0.0524,0.0477,0.0472,0.0467,0.0484,0.0477,0.0472,0,0,0,0,0,0.0348,0.0336,0.0283,0.0321,0.0316,0.0339,0.0318,0.0327,0.0429,0.039,0.0405,0.0459,0.046,0.047,0.0487,0.0486,0.052,0.0522,0.0474,0.0469,0.0466,0.048,0,0,0,0,0,0,0.0345,0.0376,0.0284,0.0284,0.0334,0.0345,0.0347,0.0328,0.0406,0.0415,0.0359,0.0365,0.0458,0.0466,0.0473,0.0483,0.0516,0.0519,0.052,0.0471,0.0467,0.0464,0,0,0,0,0,0,0.038,0.0376,0.0285,0.03,0.0303,0.0351,0.0352,0.0368,0.0408,0.0375,0.038,0.0361,0.0446,0.0463,0.0469,0.0494,0.0514,0.0516,0.0517,0.0518,0.0468,0.0465,0,0,0,0,0,0,0.038,0.0376,0.0301,0.0303,0.0307,0.0326,0.037,0.0352,0.039,0.0374,0.0395,0.0397,0.0441,0.0449,0.0466,0.0488,0.0492,0.0514,0.0515,0.0516,0.0517,0,0,0,0,0,0,0,0.0379,0.0389,0.0264,0.0307,0.031,0.0284,0.0285,0.0287,0.0391,0.0393,0.0394,0.0396,0.0501,0.0504,0.0506,0.0483,0,0,0.0514,0.0515,0,0,0,0,0,0,0,0,0.0392,0.039,0.0263,0.0262,0.0261,0.0284,0.0285,0.0287,0.0391,0.0393,0.0394,0.0396,0.0502,0.0504,0.0506,0,0,0,0,0,0,0,0,0,0,0,0,0,0,0,0.0263,0.0263,0,0.0284,0.0285,0.0287,0.0391,0.0392,0.0394,0.0395,0.0502,0.0504,0.0506,0,0,0,0,0,0,0,0,0,0,0,0,0,0,0,0,0,0,0,0,0,0,0,0,0,0,0,0,0,0,0,0,0,0,0,0,0,0,0,0,0,0,0,0,0,0,0,0,0,0,0,0,0,0,0,0,0,0,0,0,0,0,0,0,0,0,0,0,0]}],[{"header":{"parameterUnit":"kt","parameterCategory":2,"dx":1,"dy":1,"la1":30.253999710083008,"la2":30.299108505249023,"lo1":-89.0895004272461,"lo2":-89.04439544677734,"nx":28,"ny":28,"refTime":"2022-10-09T21:00:00:Z","depth":"4","parameterNumber":3,"parameterNumberName":"V-component_of_CURRENTS"},"data":[0.0145,0.0176,0.0176,0.0156,0.0136,0.0127,0.0116,0.0087,0.0063,-0.0003,-0.0056,-0.0115,-0.0213,-0.02,-0.0322,-0.034,-0.0364,-0.0464,-0.0465,-0.0509,-0.0511,-0.0512,-0.0494,0,0,0,0,0,0.0143,0.0149,0.0182,0.0161,0.0182,0.0143,0.0145,0.0117,0.0035,0.002,-0.0043,-0.0097,-0.0207,-0.027,-0.0308,-0.0357,-0.043,-0.0402,-0.0436,-0.051,-0.0512,-0.0494,0,0,0,0,0,0,0.0134,0.016,0.0153,0.0139,0.0146,0.0132,0.0113,0.006,0.002,-0.0069,-0.0083,-0.018,-0.0248,-0.0332,-0.0375,-0.042,-0.043,-0.0436,-0.0441,-0.0444,-0.0418,-0.0367,-0.0371,0,0,0,0,0,0.0085,0.0087,0.0097,0.0087,0.0069,0.0065,0.0017,0.0004,-0.0072,-0.0107,-0.0159,-0.0227,-0.0281,-0.0363,-0.041,-0.0451,-0.0518,-0.0516,-0.0517,-0.0517,-0.0487,-0.0459,-0.0453,-0.0519,-0.0519,-0.052,-0.052,0,0.0044,0.0033,0.0014,0.0018,0.0001,-0.0046,-0.006,-0.0134,-0.0144,-0.021,-0.0202,-0.0275,-0.0313,-0.0381,-0.0447,-0.0507,-0.0506,-0.0521,-0.0521,-0.0489,-0.0463,-0.0456,-0.0449,-0.0521,-0.0521,-0.0521,-0.0521,0,0.0034,-0.0002,-0.0015,-0.0063,-0.0083,-0.0102,-0.0142,-0.0161,-0.0219,-0.023,-0.0251,-0.0315,-0.0367,-0.0418,-0.0478,-0.0495,-0.0526,-0.0525,-0.0505,-0.0479,-0.0456,-0.0448,-0.0524,-0.0523,-0.0523,-0.0522,-0.0522,0,0.0013,-0.0007,-0.0047,-0.0049,-0.0087,-0.0116,-0.0158,-0.0179,-0.0227,-0.0236,-0.0302,-0.0327,-0.0404,-0.0437,-0.0464,-0.0492,-0.0518,-0.0494,-0.0476,-0.0467,-0.046,-0.0476,-0.0468,-0.0541,-0.0541,-0.0541,-0.0541,0,0.0036,0.0011,-0.0025,-0.0027,-0.0042,-0.0079,-0.0103,-0.0141,-0.0153,-0.0231,-0.024,-0.0347,-0.0382,-0.0431,-0.0448,-0.0438,-0.0498,-0.0476,-0.046,-0.0455,-0.0472,-0.0465,-0.0541,-0.0541,-0.0541,-0.0541,-0.0541,0,0.0062,0.0057,0.0023,0.0,0.0003,-0.0022,-0.0061,-0.0089,-0.0141,-0.0163,-0.0241,-0.0267,-0.0358,-0.0338,-0.0423,-0.0397,-0.0407,-0.0406,-0.0406,-0.0393,-0.0333,-0.025,-0.0366,-0.0365,-0.0364,-0.0363,-0.0362,0,0.0086,0.0077,0.0095,0.0063,0.0062,0.0079,0.0039,0.0018,-0.0008,-0.006,-0.0122,-0.0196,-0.0215,-0.0254,-0.0298,-0.0318,-0.0353,-0.032,-0.0344,-0.0345,-0.0257,-0.0359,-0.0327,-0.0346,-0.0348,-0.0349,-0.035,0,0.013,0.0147,0.0151,0.0158,0.0185,0.0184,0.0136,0.0118,0.0106,0.0032,-0.0011,-0.0149,-0.0168,-0.0221,-0.0251,-0.0283,-0.0324,-0.0267,-0.0269,-0.0213,-0.0372,-0.0341,-0.0347,-0.0316,-0.0318,-0.032,-0.0339,0,0.0174,0.018,0.0167,0.0235,0.0238,0.0217,0.0253,0.0216,0.0226,0.0231,0.0106,0.0028,-0.0068,-0.0105,-0.0114,-0.0222,-0.0203,-0.0192,-0.0134,-0.0227,-0.0226,-0.0235,-0.013,-0.013,-0.013,-0.013,0,0,0.0231,0.024,0.0316,0.0331,0.0342,0.041,0.0403,0.0404,0.038,0.0349,0.0369,0.0183,0.0123,0.0008,-0.0033,-0.009,-0.0095,-0.0083,-0.0202,-0.021,-0.0217,-0.0219,-0.0228,-0.0129,-0.0129,-0.0129,-0.0129,0,0.0277,0.0306,0.033,0.0355,0.0408,0.0442,0.0449,0.0487,0.0499,0.0408,0.0424,0.0337,0.0176,0.0132,0.0092,-0.0072,-0.0051,-0.0121,-0.0169,-0.0199,-0.0207,-0.0214,-0.0217,-0.0225,-0.0129,-0.0129,-0.0129,0,0.0364,0.0421,0.044,0.0483,0.0516,0.0526,0.0623,0.0626,0.0624,0.0627,0.0548,0.0488,0.0406,0.0265,0.0194,0.0215,0.0004,0.0032,0.0026,0.0011,-0.0017,-0.0029,-0.0039,0.0104,0.0106,0.0107,0,0,0.0422,0.0453,0.053,0.0504,0.0525,0.0602,0.0619,0.0672,0.0667,0.0669,0.062,0.0544,0.046,0.0399,0.0294,0.0135,0.0132,0.0066,0.0055,0.0047,0.0028,-0.0004,-0.0016,0.0112,0.0112,0.0113,0,0,0.0447,0.0562,0.0606,0.0591,0.0624,0.069,0.0681,0.075,0.0719,0.0722,0.0711,0.0689,0.0552,0.0488,0.0567,0.0319,0.0355,0.0335,0.0389,0.0373,0.0362,0.0379,0.0606,0,0,0,0,0,0.0584,0.0547,0.0586,0.0595,0.0651,0.0659,0.0667,0.0757,0.083,0.0815,0.0782,0.079,0.0526,0.0595,0.056,0.0498,0.0182,0.0169,0.0158,0.0186,0.0171,0.0158,0,0,0,0,0,0,0.0588,0.0597,0.0588,0.0649,0.0664,0.0661,0.0768,0.079,0.0834,0.0851,0.0798,0.0786,0.076,0.0611,0.0579,0.0521,0.0616,0.0177,0.0166,0.0157,0.0181,0.0169,0.0158,0,0,0,0,0,0.0592,0.0599,0.067,0.065,0.0663,0.0768,0.0772,0.0791,0.0828,0.0783,0.0781,0.0903,0.0758,0.0731,0.0592,0.0537,0.0637,0.0626,0.017,0.0162,0.0154,0.0175,0,0,0,0,0,0,0.0595,0.0602,0.0674,0.0681,0.0694,0.0771,0.0787,0.0791,0.0756,0.076,0.0879,0.0891,0.0755,0.0734,0.0713,0.0545,0.0655,0.0643,0.0636,0.0164,0.0157,0.0152,0,0,0,0,0,0,0.06,0.0607,0.0677,0.0728,0.0741,0.0773,0.0787,0.0649,0.0747,0.085,0.0864,0.0884,0.0736,0.0736,0.072,0.0505,0.0668,0.0657,0.0649,0.0644,0.0158,0.0153,0,0,0,0,0,0,0.0604,0.061,0.0726,0.0736,0.0748,0.0828,0.0645,0.0662,0.0909,0.0844,0.0922,0.0928,0.0732,0.072,0.0724,0.0517,0.0508,0.0668,0.066,0.0655,0.0651,0,0,0,0,0,0,0,0.0608,0.0547,0.0641,0.0743,0.0753,0.0748,0.0749,0.075,0.091,0.0916,0.0921,0.0926,0.0733,0.072,0.0708,0.0526,0,0,0.0669,0.0664,0,0,0,0,0,0,0,0,0.0547,0.0547,0.0641,0.0643,0.0645,0.0748,0.0749,0.075,0.0911,0.0915,0.092,0.0924,0.0729,0.0719,0.0709,0,0,0,0,0,0,0,0,0,0,0,0,0,0,0,0.0641,0.0643,0,0.0748,0.0749,0.075,0.0912,0.0915,0.0919,0.0922,0.0726,0.0718,0.071,0,0,0,0,0,0,0,0,0,0,0,0,0,0,0,0,0,0,0,0,0,0,0,0,0,0,0,0,0,0,0,0,0,0,0,0,0,0,0,0,0,0,0,0,0,0,0,0,0,0,0,0,0,0,0,0,0,0,0,0,0,0,0,0,0,0,0,0,0]}]]]